www.pogodaiklimat.ru

Погода и климат >> Архив погоды >> Австралия >> Квинсленд >> Рома


ПОГОДА в Роме

  • Прогноз погоды в Роме
  • Монитор погоды в Роме

АРХИВ ПОГОДЫ в Роме

Время (UTC), дата Ветер
(напр.,м/с)
 
Видим.   Явления Облачность Т
(С)
Тd
(С)
f
(%)
Тe
(С)
Тes
(С)
Комфортность P
(гПа)
Po
(гПа)
Тmin
(С)
Tmax
(С)
R
(мм)
R24
(мм)
S
(см)
11 15.05 В 2 н/о 9/0 2000 м
[]
+19.5 +9.7 53 +21 +21 комфорт 1024.7 988.4
12 15.05 В 3 н/о н/о +17.8 +9.2 57 +18 +18 1024.7 988.4
14 15.05 СВ 2 н/о н/о +15.3 +9.0 66 +15 +15 1024.1 987.8 +25.7
15 15.05 СВ 4 н/о н/о +14.4 +10.4 77 +13 +13 1023.9 987.6
17 15.05 штиль 0 н/о н/о +14.4 +11.6 83 +14 +14 1023.4 987.1
18 15.05 штиль 0 н/о н/о +11.9 +10.0 88 +11 +11 1023.4 987.1
20 15.05 штиль 0 н/о н/о +10.6 +8.9 89 +10 +10 1023.8 987.5
21 15.05 штиль 0 н/о н/о +12.3 +11.4 94 +12 +12 1024.6 988.3
23 15.05 СВ 3 н/о 9/0 2000 м
[]
+18.5 +13.1 71 +19 +21 1025.7 989.3
00 16.05 СВ 5 н/о н/о +20.9 +12.6 59 +23 +23 комфорт 1025.4 989.1
02 16.05 С 5 н/о н/о +24.2 +10.8 43 +25 +25 комфорт 1023.4 987.1 +10.4
03 16.05 СВ 3 н/о н/о +24.3 +11.3 44 +26 +26 жарко 1022.2 986.0
05 16.05 СВ 5 н/о 10/10 1500 м
[]
+24.2 +10.5 42 +25 +25 комфорт 1020.9 984.7
06 16.05 СВ 4 н/о н/о +24.2 +10.1 41 +25 +25 комфорт 1021.0 984.8
08 16.05 В 3 н/о 10/0 2000 м
[]
+21.5 +10.3 49 +23 +23 комфорт 1021.8 985.6
09 16.05 В 3 н/о н/о +20.7 +10.8 53 +23 +23 комфорт 1022.4 986.2
11 16.05 штиль 0 н/о 10/0 2000 м
[]
+20.3 +10.4 53 +22 +22 комфорт 1023.6 987.3
12 16.05 штиль 0 н/о н/о +19.8 +10.8 56 +21 +21 комфорт 1023.4 987.1
14 16.05 штиль 0 н/о 10/0 2000 м
[]
+18.6 +9.9 57 +19 +19 1022.8 986.5 +26.0
15 16.05 СВ 3 н/о н/о +17.6 +10.5 63 +18 +18 1022.8 986.5
17 16.05 СВ 4 н/о 10/0 2000 м
[]
+19.0 +11.3 61 +20 +20 1022.6 986.4
18 16.05 СВ 4 н/о н/о +18.3 +11.4 64 +18 +18 1022.9 986.6
20 16.05 С 2 н/о 6/0 2000 м
[]
+15.4 +11.0 75 +15 +15 1023.9 987.6
21 16.05 СВ 3 н/о н/о +14.2 +10.4 78 +13 +13 1024.6 988.3
23 16.05 С 5 н/о н/о +19.6 +12.1 62 +21 +21 комфорт 1025.6 989.2
00 17.05 С 6 н/о н/о +21.5 +11.2 52 +23 +23 комфорт 1025.4 989.1
02 17.05 С 4 н/о н/о +24.1 +10.7 43 +25 +25 комфорт 1023.6 987.3 +14.2
03 17.05 С 4 н/о н/о +24.6 +10.1 40 +26 +26 жарко 1022.5 986.3
05 17.05 С 3 н/о 1/0 2000 м
[]
+23.9 +8.7 38 +25 +28 комфорт 1021.5 985.3
06 17.05 С 3 н/о н/о +23.9 +9.9 41 +25 +25 комфорт 1021.6 985.4
08 17.05 СВ 2 н/о 10/10 1500 м
[]
+21.3 +10.5 50 +23 +23 комфорт 1022.5 986.3
09 17.05 СВ 3 н/о н/о +20.1 +12.6 62 +22 +22 комфорт 1023.3 987.0
11 17.05 СВ 2 н/о 9/0 2000 м
[]
+20.2 +12.4 61 +23 +23 комфорт 1024.2 987.9
12 17.05 СВ 2 н/о н/о +19.3 +12.3 64 +21 +21 комфорт 1024.4 988.1
14 17.05 С 4 н/о 10/10 1500 м
[]
+19.5 +11.5 60 +21 +21 комфорт 1024.9 988.6 +25.5
15 17.05 С 4 н/о н/о +19.7 +12.0 61 +21 +21 комфорт 1024.8 988.5
17 17.05 С 6 н/о 10/0
[]
+19.1 +11.4 61 +20 +20 1024.8 988.5
18 17.05 С 4 н/о н/о +18.2 +11.3 64 +18 +18 1024.8 988.5
20 17.05 С 3 н/о 6/0
[]
+15.6 +11.2 75 +15 +15 1025.7 989.3
21 17.05 штиль 0 н/о н/о +15.0 +10.8 76 +15 +15 1026.4 990.0
23 17.05 С 5 н/о 3/0
[]
+20.8 +11.7 56 +23 +25 комфорт 1027.4 991.0
00 18.05 С 6 н/о н/о +21.6 +10.4 49 +23 +23 комфорт 1027.3 990.9
02 18.05 С 4 н/о н/о +24.5 +10.0 40 +25 +25 комфорт 1025.4 989.1 +14.8
03 18.05 С 4 н/о н/о +24.9 +8.8 36 +25 +25 комфорт 1024.6 988.3
05 18.05 СВ 5 н/о н/о +25.4 +7.5 32 +25 +25 комфорт 1023.5 987.2
06 18.05 СВ 5 н/о н/о +25.5 +6.7 30 +25 +25 комфорт 1023.3 987.0
08 18.05 СВ 3 н/о н/о +19.7 +6.1 41 +21 +21 комфорт 1024.1 987.8
09 18.05 СВ 2 н/о н/о +18.3 +6.5 46 +19 +19 1024.6 988.3
11 18.05 штиль 0 н/о н/о +16.2 +7.2 55 +16 +16 1025.9 989.5
12 18.05 штиль 0 н/о н/о +15.4 +7.4 59 +15 +15 1025.9 989.5
14 18.05 С 3 н/о н/о +14.6 +8.8 68 +14 +14 1026.0 989.6 +26.2
15 18.05 С 3 н/о н/о +15.2 +9.3 68 +15 +15 1026.0 989.6
17 18.05 С 1 н/о н/о +13.0 +8.7 75 +13 +13 1025.8 989.4
18 18.05 СВ 3 н/о н/о +12.2 +8.3 77 +11 +11 1025.4 989.1
20 18.05 В 3 н/о н/о +10.1 +7.7 85 +8 +8 1026.7 990.3
21 18.05 В 3 н/о н/о +10.5 +8.3 86 +8 +8 1027.4 991.0
23 18.05 СВ 3 н/о н/о +17.4 +11.0 66 +17 +17 1027.9 991.5
00 19.05 СВ 5 н/о н/о +19.8 +10.5 55 +21 +21 комфорт 1027.8 991.4
02 19.05 СВ 4 н/о н/о +22.9 +10.0 44 +25 +25 комфорт 1025.9 989.5 +9.8
03 19.05 СВ 4 н/о н/о +23.9 +7.9 36 +24 +24 комфорт 1024.6 988.3
05 19.05 СВ 4 н/о н/о +24.4 +6.2 31 +24 +24 комфорт 1023.3 987.0
06 19.05 В 4 н/о н/о +23.7 +6.9 34 +24 +24 комфорт 1023.2 986.9
08 19.05 СВ 3 н/о 10/0 2000 м
[]
+20.8 +7.4 42 +22 +22 комфорт 1024.0 987.7
09 19.05 СВ 2 н/о н/о +19.8 +7.9 46 +21 +21 комфорт 1024.4 988.1
11 19.05 СВ 3 н/о 10/10 1500 м
[]
+19.3 +9.2 52 +21 +21 комфорт 1025.0 988.7
12 19.05 С 5 н/о н/о +20.4 +10.5 53 +22 +22 комфорт 1025.3 989.0
14 19.05 С 5 н/о 8/0 2000 м
[]
+18.5 +12.3 67 +19 +19 1025.6 989.2 +25.1
15 19.05 С 4 н/о н/о +17.8 +12.3 70 +18 +18 1025.2 988.9
17 19.05 С 2 н/о 10/0 2000 м
[]
+16.4 +11.1 71 +17 +17 1025.1 988.8
18 19.05 С 3 н/о н/о +15.7 +11.3 75 +15 +15 1025.1 988.8
20 19.05 С 1 н/о 10/0 2000 м
[]
+16.2 +11.4 73 +17 +17 1026.1 989.7
21 19.05 С 3 н/о н/о +15.9 +11.5 75 +15 +15 1026.4 990.0
23 19.05 С 4 н/о н/о +18.6 +12.1 66 +19 +19 1026.7 990.3
00 20.05 С 5 н/о н/о +20.9 +12.3 58 +23 +23 комфорт 1026.8 990.4
02 20.05 С 5 н/о н/о +22.9 +11.0 47 +25 +25 комфорт 1024.8 988.5 +15.3
03 20.05 С 5 н/о н/о +23.9 +9.5 40 +25 +25 комфорт 1023.8 987.5
05 20.05 С 4 н/о 1/0
[]
+24.2 +7.8 35 +25 +27 комфорт 1022.5 986.3
06 20.05 С 4 н/о н/о +23.6 +8.5 38 +24 +24 комфорт 1022.6 986.4
08 20.05 С 2 н/о 8/0
[]
+20.3 +8.9 48 +22 +22 комфорт 1023.2 986.9
09 20.05 С 2 н/о н/о +18.5 +9.3 55 +20 +20 1023.7 987.4
11 20.05 С 1 н/о 6/0
[]
+16.9 +9.8 63 +18 +18 1024.4 988.1
12 20.05 штиль 0 н/о н/о +15.0 +9.8 71 +15 +15 1024.7 988.4
14 20.05 С 2 н/о н/о +12.9 +9.2 78 +12 +12 1024.3 988.0 +25.4
15 20.05 С 3 н/о н/о +13.0 +9.8 81 +12 +12 1024.1 987.8
17 20.05 штиль 0 н/о н/о +12.7 +9.9 83 +12 +12 1023.9 987.6
18 20.05 штиль 0 н/о н/о +13.5 +11.2 86 +13 +13 1024.1 987.8
20 20.05 В 1 н/о н/о +11.1 +9.0 87 +11 +11 1024.5 988.2
21 20.05 В 2 н/о н/о +11.2 +9.6 90 +10 +10 1025.3 989.0
23 20.05 С 3 н/о н/о +19.6 +13.5 68 +22 +22 комфорт 1026.3 989.9
00 21.05 С 5 н/о н/о +21.1 +12.5 58 +23 +23 комфорт 1026.3 989.9
02 21.05 СВ 4 н/о 1/1 1000 м
[]
+23.0 +10.8 46 +25 +32 комфорт 1024.8 988.5 +10.7
03 21.05 СВ 4 н/о н/о +24.8 +9.9 39 +26 +26 жарко 1023.6 987.3
05 21.05 СВ 5 н/о 5/5 1500 м
[]
+24.2 +9.0 38 +25 +26 комфорт 1022.6 986.4
06 21.05 ЮВ 1 н/о н/о +25.2 +8.7 35 +26 +26 жарко 1022.6 986.4
08 21.05 СВ 3 н/о 10/0
[]
+21.6 +10.1 48 +23 +23 комфорт 1023.6 987.3
09 21.05 штиль 0 н/о н/о +20.2 +10.3 53 +21 +21 комфорт 1024.2 987.9
11 21.05 штиль 0 н/о 4/0
[]
+18.2 +10.1 59 +18 +18 1024.7 988.4
12 21.05 СВ 2 н/о н/о +16.1 +9.1 63 +16 +16 1025.1 988.8
14 21.05 штиль 0 н/о 10/10 1500 м
[]
+16.3 +11.5 73 +16 +16 1025.2 988.9 +26.4
15 21.05 штиль 0 н/о н/о +17.4 +10.8 65 +17 +17 1025.2 988.9
17 21.05 С 2 н/о 10/0 2000 м
[]
+17.3 +11.3 68 +18 +18 1025.0 988.7
18 21.05 С 3 н/о н/о +18.2 +12.0 67 +19 +19 1025.0 988.7
20 21.05 ЮЗ 2 н/о 9/9 1500 м
[]
+15.1 +11.1 77 +15 +15 1026.0 989.6
21 21.05 С 2 н/о н/о +16.1 +12.1 77 +16 +16 1026.8 990.4
23 21.05 З 1 н/о 10/0
[]
+18.3 +12.3 68 +20 +23 1028.0 991.6
00 22.05 В 1 н/о н/о +19.4 +12.7 65 +22 +22 комфорт 1028.1 991.7
02 22.05 ЮВ 2 н/о 6/0
[]
+21.1 +12.0 56 +23 +30 комфорт 1027.0 990.6 +14.9
03 22.05 ЮВ 2 н/о н/о +22.5 +12.7 54 +25 +25 комфорт 1025.4 989.1
05 22.05 СВ 4 н/о 5/0
[]
+23.0 +9.8 43 +25 +27 комфорт 1024.4 988.1
06 22.05 СВ 4 н/о н/о +23.4 +7.9 37 +24 +24 комфорт 1024.5 988.2
08 22.05 СВ 2 н/о 10/0
[]
+20.7 +8.7 46 +23 +23 комфорт 1024.7 988.4
09 22.05 В 2 н/о н/о +19.7 +9.3 51 +22 +22 комфорт 1025.2 988.9

 

Местоположение метеостанции Рома (Квинсленд, Австралия): широта -26.55 долгота 148.78 высота над уровнем моря 304 м.

В архиве по умолчанию представлена погода в Роме за последнюю неделю. Архивные данные за месяц целиком и за предыдущие месяцы, начиная с января 2011 года, Вы можете получить, выбрав интересующий диапазон дат из раскрывающегося списка и нажав кнопку "Ввод!".


*Определитесь, кто Вы:
робот инопланетянин человек

Внимание! Время в таблицах - всемирное. Для получения местного времени необходимо прибавить поправку, которая равна 10 ч.

Смотрите также архив погоды в соседних городах и на ближайших метеорологических станциях:

Погода в Майлсе (Квинсленд, Австралия) (140 км)
Погода в Сейнт Джордж аэропорту (Квинсленд, Австралия) (168 км)
Погода в Роллстоне (Квинсленд, Австралия) (232 км)
Погода в Чарвилле (Квинсленд, Австралия) (251 км)
Погода в Долби (Квинсленд, Австралия) (256 км)
Погода в Тангуле (Квинсленд, Австралия) (292 км)
Погода в Инглвуде (Квинсленд, Австралия) (293 км)
Погода в Гейнде (Квинсленд, Австралия) (302 км)
Погода в Кингарое (Квинсленд, Австралия) (303 км)
Погода в Оки (Квинсленд, Австралия) (308 км)

Пояснения к столбцам:

Ветер - указаны скорость ветра в м/с - средняя за 10 мин, порывы в срок и между сроками (в фигурных скобках) и направление, откуда дует ветер: С - северный, СВ - северо-восточный, В - восточный, ЮВ - юго-восточный, Ю - южный, ЮЗ - юго-западный, З - западный, СЗ - северо-западный.
Видимость - горизонтальная дальность видимости в метрах или километрах. При видимости от 1 до 10 км при отсутствии осадков обычно наблюдается дымка, при ухудшении видимости до 1 км и менее - туман. В сухую погоду видимость может ухудшаться дымом, пылью или мглою.
Явления - указаны атмосферные явления, наблюдавшиеся в срок или в последний час перед сроком; фигурными скобками обозначены явления, наблюдавшиеся между сроками (за 1-3 часа до срока); квадратными скобками обозначены град или гололедные отложения с указанием их диаметра в мм.
Облачность - указаны через наклонную черту общая и нижняя облачность в баллах и высота нижней границы облаков в метрах; квадратными скобками обозначены формы облаков: Ci - перистые, Cs - перисто-слоистые, Cc - перисто-кучевые, Ac - высококучевые, As - высокослоистые, Sc - слоисто-кучевые, Ns - слоисто-дождевые, Cu - кучевые, Cb - кучево-дождевые. Подробнее классификацию облаков см. в Атласе облаков (PDF).
T - Температура воздуха - температура, измеренная на высоте 2 м над землей.
Td - Температура точки росы - температура, при понижении до которой содержащийся в воздухе водяной пар достигнет насыщения.
f - Относительная влажность воздуха - влажноcть воздуха, измеренная на высоте 2 м над землей.
Te - Эффективная температура - температура, которую ощущает одетый по сезону человек в тени. Характеристика душности погоды. При расчете учитывается влияние влажности воздуха и скорости ветра на теплоощущения человека.
Tes - Эффективная температура на солнце - температура, которую ощущает человек, с поправкой на солнечный нагрев. Характеристика знойности погоды. Зависит от высоты солнца над горизонтом, облачности и скорости ветра. Ночью, в пасмурную погоду, а также при ветре 12 м/с и более поправка равна нулю.
P - Атмосферное давление - приведенное к уровню моря атмосферное давление.
Po - Атмосферное давление - измеренное на уровне метеостанции атмосферное давление.
Tmin - Минимальная температура - минимум температуры воздуха на высоте 2 м над землей.
Tmax - Максимальная температура - максимум температуры воздуха на высоте 2 м над землей.
R - Количество осадков - Количество выпавших осадков за период времени, мм. При наведении курсора мыши на число - период времени, за который выпало указанное количество осадков.
R24 - Количество осадков - Количество выпавших осадков за 24 часа, мм.
S - Снежный покров - Высота снежного покрова, см. При наведении курсора мыши на число - состояние снежного покрова и степень покрытия местности в баллах.